Overview Statistics Trail Chart Weather Telemetry Raw packets
 

This is the latest recevied weather packets stored in our database for station/object 4S6DRJ-13. If no packets are shown the sender has not sent any weather packets the latest 10 day(s).

<< 49 50 51 52 53 54 55 >>
Time Temp. Humidity Pressure Rain* Wind** Luminosity Snow
1788375202 27.78° C 85% 1010.4 hPa 0 mm 0.89 m/s, 218° 0 W/m² -
1788375141 27.78° C 85% 1010.4 hPa 0 mm 0.45 m/s, 193° 0 W/m² -
1788375080 27.78° C 85% 1010.5 hPa 0 mm 0.89 m/s, 239° 0 W/m² -
1788375019 27.78° C 85% 1010.5 hPa 0 mm 1.34 m/s, 250° 0 W/m² -
1788374958 27.78° C 85% 1010.5 hPa 0 mm 0.89 m/s, 219° 0 W/m² -
1788374897 27.78° C 85% 1010.6 hPa 0 mm 0 m/s 0 W/m² -
1788374836 27.78° C 85% 1010.8 hPa 0 mm 0.45 m/s, 189° 0 W/m² -
1788374776 27.78° C 85% 1010.6 hPa 0 mm 0.45 m/s, 198° 0 W/m² -
1788374714 27.78° C 85% 1010.6 hPa 0 mm 1.34 m/s, 225° 0 W/m² -
1788374653 27.78° C 85% 1010.5 hPa 0 mm 0.45 m/s, 229° 0 W/m² -
1788374592 27.78° C 85% 1010.5 hPa 0 mm 0.89 m/s, 220° 0 W/m² -
1788374531 27.78° C 85% 1010.6 hPa 0 mm 0 m/s 0 W/m² -
1788374470 27.78° C 85% 1010.7 hPa 0 mm 0 m/s 0 W/m² -
1788374409 27.78° C 85% 1010.6 hPa 0 mm 0.89 m/s, 213° 0 W/m² -
1788374348 27.78° C 85% 1010.7 hPa 0 mm 0.45 m/s, 233° 0 W/m² -
1788374287 27.78° C 85% 1010.8 hPa 0 mm 0.89 m/s, 225° 0 W/m² -
1788374226 27.78° C 85% 1010.6 hPa 0 mm 1.79 m/s, 250° 0 W/m² -
1788374165 27.78° C 85% 1010.6 hPa 0 mm 0.89 m/s, 198° 0 W/m² -
1788374104 27.78° C 85% 1010.7 hPa 0 mm 0.45 m/s, 218° 0 W/m² -
1788374057 27.78° C 85% 1010.8 hPa 0 mm 1.34 m/s, 238° 0 W/m² -
1788373981 27.78° C 85% 1010.7 hPa 0 mm 1.79 m/s, 205° 0 W/m² -
1788373920 27.78° C 85% 1010.8 hPa 0 mm 0.45 m/s, 234° 0 W/m² -
1788373860 27.78° C 85% 1010.6 hPa 0 mm 0.89 m/s, 162° 0 W/m² -
1788373799 27.78° C 85% 1010.6 hPa 0 mm 1.79 m/s, 249° 0 W/m² -
1788373738 27.78° C 85% 1010.8 hPa 0 mm 0.45 m/s, 228° 0 W/m² -

* Rain latest hour (hover to see other rain measurements)
** Current wind speed in m/s (hover to see current wind gust speed)